Probability
0 0 0 0 0 0 0 0 0 0 0 0 0 0 0 0 0 0 0 0 0 0 0 0 0 0 0 0 0 0 0 0 0 0 0 0 0 0 0 0 0 0 0 0
0 0 0 0 0 0 0 0 0 0 0 0 0 0 0 0 0 0 0 0 0 0 0 0 0 0 0 0 0 0 0 0 0 0 0 0 0 0 0 0 0 0 0 0
0 0 0 0 0 0 0 0 0 0 0 0 0 0 0 0 0 0 0 0 0 0 0 0 0 0 0 0 0 0 0 0 0 0 0 0 0 0 0 0 0 0 0 0
0 0 0 0 0 0 0 0 0 0 0 0 0 0 0 0 0 0 0 0 0 0 0 0 0 0 0 0 0 0 0 0 0 0 0 0 0 0 0 0 0 0 0 0
0 0 0 0 0 0 0 0 0 0 0 0 0 0 0 0 0 0 0 0 0 0 0 0 0 0 0 0 0 0 0 0 0 0 0 0 0 0 0 0 0 0 0 0
0 0 0 0 0 0 0 0 0 0 0 0 0 0 0 0 0 0 0 0 0 0 0 0 0 0 0 0 0 0 0 0 0 0 0 0 0 0 0 0 0 0 0 0
0 0 0 0 0 0 0 0 0 0 0 0 0 0 0 0 0 0 0 0 0 0 0 0 0 0 0 0 0 0 0 0 0 0 0 0 0 0 0 0 0 0 0 0
0 0 0 0 0 0 0 0 0 0 0 0 0 0 0 0 0 0 0 0 0 0 0 0 0 0 0 0 0 0 0 0 0 0 0 0 0 0 0 0 0 0 0 0
0 0 0 0 0 0 0 0 0 0 0 0 0 0 0 0 0 0 0 0 0 0 0 0 0 0 0 0 0 0 0 0 0 0 0 0 0 0 0 0 0 0 0 0
0 0 0 0 0 0 0 0 0 0 0 0 0 0 0 0 0 0 0 0 0 0 0 0 0 0 0 0 0 0 0 0 0 0 0 0 0 0 0 0 0 0 0 0
0 0 0 0 0 0 0 0 0 0 0 0 0 0 0 0 0 0 0 0 0 0 0 0 0 0 0 0 0 0 0 0 0 0 0 0 0 0 0 0 0 0 0 0
0 0 0 0 0 0 0 0 0 0 0 0 0 0 0 0 0 0 0 0 0 0 0 0 0 0 0 0 0 0 0 0 0 0 0 0 0 0 0 0 0 0 0 0
0 0 0 0 0 0 0 0 0 0 0 0 0 0 0 0 0 0 0 0 0 0 0 0 0 0 0 0 0 0 0 0 0 0 0 0 0 0 0 0 0 0 0 0
0 0 0 0 0 0 0 0 0 0 0 0 0 0 0 0 0 0 0 0 0 0 0 0 0 0 0 0 0 0 0 0 0 0 0 0 0 0 0 0 0 0 0 0
0 0 0 0 0 0 0 0 0 0 0 0 0 0 0 0 0 0 0 0 0 0 0 0 0 0 0 0 0 0 0 0 0 0 0 0 0 0 0 0 0 0 0 0
0 0 0 0 0 0 0 0 0 0 0 0 0 0 0 0 0 0 0 0 0 0 0 0 0 0 0 0 0 0 0 0 0 0 0 0 0 0 0 0 0 0 0 0
0 0 0 0 0 0 0 0 0 0 0 0 0 0 0 0 0 0 0 0 0 0 0 0 0 0 0 0 0 0 0 0 0 0 0 0 0 0 0 0 0 0 0 0
0 0 0 0 0 0 0 0 0 0 0 0 0 0 0 0 0 0 0 0 0 0 0 0 0 0 0 0 0 0 0 0 0 0 0 0 0 0 0 0 0 0 0 0
0 0 0 0 0 0 0 0 0 0 0 0 0 0 0 0 0 0 0 0 0 0 0 0 0 0 0 0 0 0 0 0 0 0 0 0 0 0 0 0 0 0 0 0
0 0 0 0 0 0 0 0 0 0 0 0 0 0 0 0 0 0 0 0 0 0 0 0 0 0 0 0 0 0 0 0 0 0 0 0 0 0 0 0 0 0 0 0
0 0 0 0 0 0 0 0 0 0 0 0 0 0 0 0 0 0 0 0 0 0 0 0 0 0 0 0 0 0 0 0 0 0 0 0 0 0 0 0 0 0 0 0
0 0 0 0 0 0 0 0 0 0 0 0 0 0 0 0 0 0 0 0 0 0 0 0 0 0 0 0 0 0 0 0 0 0 0 0 0 0 0 0 0 0 0 0
0 0 0 0 0 0 0 0 0 0 0 0 0 0 0 0 0 0 0 0 0 0 0 0 0 0 0 0 0 0 0 0 0 0 0 0 0 0 0 0 0 0 0 0
0 0 0 0 0 0 0 0 0 0 0 0 0 0 0 0 0 0 0 0 0 0 0 0 0 0 0 0 0 0 0 0 0 0 0 0 0 0 0 0 0 0 0 0
0 0 0 0 0 0 0 0 0 0 0 0 0 0 0 0 0 0 0 0 0 0 0 0 0 0 0 0 0 0 0 0 0 0 0 0 0 0 0 0 0 0 0 0
0 0 0 0 0 0 0 0 0 0 0 0 0 0 0 0 0 0 0 0 0 0 0 0 0 0 0 0 0 0 0 0 0 0 0 0 0 0 0 0 0 0 0 0
0 0 0 0 0 0 0 0 0 0 0 0 0 0 0 0 0 0 0 0 0 0 0 0 0 0 0 0 0 0 0 0 0 0 0 0 0 0 0 0 0 0 0 0
Wind_Speed
6 7 6 8 12 12 9 6 5 5 6 6 8 8 9 11 13 15 15 16 16 15 13 11 10 9 8 7 6 7 7 7 7 6 5 4 3 1 2 2 3 4 5 6
4 5 7 7 10 7 8 8 7 9 7 7 7 8 10 12 14 14 14 14 15 15 15 15 14 13 12 10 8 7 7 7 7 6 6 5 4 3 1 1 2 3 4 5
4 6 5 4 7 7 9 10 7 6 5 9 10 11 7 9 12 13 13 14 14 14 12 13 13 14 15 14 8 7 8 7 7 8 7 7 5 4 3 2 1 1 3 4
2 2 1 2 6 10 12 11 11 7 7 9 10 10 2 6 10 12 13 13 13 12 12 11 11 12 14 14 9 7 7 7 8 9 8 7 6 5 4 3 2 2 3 4
3 3 5 4 6 6 3 5 8 7 9 11 12 9 3 5 7 8 9 10 9 9 10 10 11 12 13 14 11 8 8 8 9 10 9 9 8 7 5 4 4 4 4 5
3 3 4 3 11 14 1 4 6 8 10 12 12 9 7 11 13 13 11 9 10 9 9 10 11 10 11 12 11 10 9 8 8 10 11 11 10 8 5 5 5 6 5 5
2 3 1 6 13 10 3 5 8 8 9 10 7 8 12 14 14 12 12 12 11 10 9 9 10 9 10 11 12 12 12 10 8 9 11 11 10 7 6 6 6 6 6 5
3 2 2 8 7 5 3 6 8 10 10 11 12 14 16 15 14 14 14 13 11 9 9 9 8 7 9 11 11 11 12 11 9 9 10 10 11 9 8 8 8 7 6 5
2 1 1 1 2 5 6 7 9 10 13 13 15 17 17 16 15 15 14 13 11 10 10 9 8 7 9 10 11 12 12 11 10 9 9 10 12 11 9 8 8 7 7 6
4 2 2 4 5 6 7 10 12 14 15 15 17 18 18 16 14 13 13 12 11 10 10 11 9 9 9 9 9 10 11 11 10 8 8 9 10 10 10 10 9 8 8 7
3 2 6 6 7 9 11 12 15 16 16 17 17 18 17 15 14 12 12 11 10 10 11 12 11 10 9 8 8 9 10 10 10 9 9 10 10 10 12 11 12 11 9 9
2 5 5 9 11 13 14 15 17 17 16 15 14 14 14 12 11 11 11 11 10 11 11 12 11 10 10 8 6 7 8 9 9 7 7 8 9 7 9 9 15 15 14 12
6 8 8 12 13 14 15 16 16 14 13 13 11 10 11 10 9 10 11 12 12 12 12 11 10 10 10 8 7 6 7 8 8 7 6 8 10 10 8 5 10 14 16 17
8 8 9 11 12 13 13 13 12 11 11 12 12 11 11 11 11 12 13 12 12 12 12 11 10 11 10 8 7 7 7 8 8 7 6 7 10 10 10 10 8 5 7 14
9 8 10 12 11 11 11 11 12 13 13 12 11 12 12 13 14 14 13 13 12 12 12 11 11 11 10 8 8 8 6 5 5 6 5 6 8 9 9 10 9 7 4 4
9 9 10 11 12 13 13 13 13 13 13 14 13 13 14 15 16 16 14 13 13 13 12 12 12 11 10 9 8 7 6 9 7 5 5 5 7 9 10 10 10 9 9 8
8 9 11 12 13 14 13 13 13 14 14 14 15 15 16 17 17 16 16 15 14 14 13 12 12 11 10 9 8 6 5 6 8 6 5 5 7 9 10 11 10 10 9 11
9 10 11 14 15 16 16 14 15 15 14 15 16 16 17 17 18 19 18 17 16 15 14 13 12 11 10 9 7 5 5 4 4 5 5 5 6 9 10 11 12 11 8 9
11 12 13 14 15 15 14 15 15 13 14 14 15 16 17 18 19 20 18 17 17 16 14 11 14 12 9 10 10 5 5 5 4 5 5 5 7 8 10 11 11 11 11 11
12 13 14 15 14 14 15 14 14 13 14 14 16 18 19 20 20 20 18 16 13 12 11 10 10 8 8 9 11 5 5 5 5 5 4 4 6 8 10 11 11 11 11 11
13 14 15 15 14 14 14 14 13 14 14 15 18 20 21 21 20 18 15 13 12 11 10 11 8 7 6 7 8 5 5 5 5 5 4 4 6 8 9 10 11 11 11 10
12 13 14 14 14 14 12 11 12 15 16 18 21 22 22 21 19 16 14 11 10 10 8 5 5 8 9 8 4 4 5 5 5 4 4 5 6 8 9 10 10 10 10 10
11 11 11 13 13 13 13 13 14 15 18 20 22 22 21 19 15 13 12 7 6 8 6 5 7 10 11 5 4 4 5 5 5 4 4 4 5 7 8 10 9 10 10 10
10 10 12 12 11 12 14 15 16 16 18 19 19 21 20 16 13 10 8 10 9 8 5 6 10 11 8 4 4 4 4 4 3 3 3 4 4 5 6 8 8 9 10 11
10 10 10 11 12 11 13 16 17 17 18 17 20 20 16 12 12 11 9 8 8 6 5 7 10 10 6 4 4 4 3 3 2 2 2 3 3 4 5 7 7 8 9 9
9 9 9 9 10 10 11 13 14 15 15 17 17 17 15 13 12 10 7 7 7 7 5 4 4 5 4 4 4 4 3 3 2 2 2 3 3 4 5 6 9 8 8 9
9 8 8 9 9 10 12 13 14 16 16 16 18 18 16 14 12 11 9 7 6 5 4 4 3 3 3 3 3 3 3 2 2 2 2 2 2 3 5 7 6 6 7 8
Wind_Direction
227 248 268 288 298 296 288 251 191 130 95 23 3 13 24 28 25 23 17 12 7 2 357 346 332 311 284 252 221 196 184 185 192 191 185 179 185 233 294 329 348 0 26 35
291 280 292 309 333 346 21 25 84 96 63 355 347 20 32 28 24 18 10 4 360 357 355 352 343 331 314 282 244 206 193 194 189 181 180 183 189 204 237 304 339 11 46 57
269 300 348 14 3 67 64 30 48 60 22 350 354 4 16 18 16 5 355 351 348 347 344 342 339 334 327 303 268 219 203 194 186 181 182 187 187 192 203 213 231 92 84 83
212 357 270 173 69 96 95 59 44 44 10 356 336 313 315 34 7 343 337 336 333 331 329 328 329 332 332 325 292 244 217 201 190 185 185 182 180 192 202 192 174 149 131 116
157 211 247 111 31 358 312 81 30 8 349 340 325 306 254 10 342 316 312 311 309 309 312 316 323 326 332 334 318 280 242 219 202 189 183 180 183 191 192 179 168 155 144 133
161 214 253 341 333 320 298 116 19 349 332 330 340 337 309 326 324 315 310 307 305 308 312 316 317 322 328 331 330 311 284 250 216 191 184 185 185 183 180 172 165 152 146 145
277 258 82 338 322 338 23 312 317 311 308 311 305 273 283 297 298 293 293 293 293 296 299 302 308 318 322 324 324 319 306 283 239 201 189 185 179 173 170 166 157 153 148 148
358 319 341 357 16 41 276 272 281 290 291 287 281 280 284 286 286 288 291 288 286 285 287 289 294 307 311 310 309 313 310 293 257 214 193 183 174 173 169 165 161 159 149 145
51 54 150 279 192 227 243 267 277 277 280 279 281 283 284 284 284 285 283 282 281 278 283 284 282 284 292 299 307 310 311 301 271 230 200 177 175 174 171 170 170 169 164 161
95 94 253 254 251 254 254 260 268 272 276 279 279 281 283 283 283 280 279 278 277 275 276 279 278 275 272 284 299 302 305 305 283 236 205 183 177 175 176 178 177 174 172 168
78 310 310 288 276 271 272 276 281 283 283 283 284 287 288 291 291 289 288 283 277 273 271 274 274 272 274 280 291 297 302 308 295 247 206 187 181 183 182 186 184 178 179 172
250 250 248 267 272 281 287 289 291 292 293 291 288 290 294 296 296 296 295 290 285 278 272 272 270 270 273 273 272 285 296 306 305 269 214 187 178 176 191 179 184 183 177 172
233 248 251 267 278 284 286 287 290 290 292 296 295 292 295 295 293 294 294 295 291 285 281 276 270 269 271 270 260 262 278 291 303 284 229 188 176 173 168 169 180 184 181 178
265 277 282 279 282 287 289 291 293 295 293 290 290 291 291 291 290 292 293 292 291 290 287 282 275 270 268 267 257 255 267 281 293 290 255 198 180 177 174 171 167 175 193 188
286 283 277 285 291 295 295 297 300 300 294 290 286 288 291 293 292 290 288 287 288 287 286 283 278 274 271 267 259 252 257 266 278 288 270 213 182 174 172 172 169 159 137 152
290 294 295 296 297 299 300 299 298 293 292 292 293 292 292 292 292 292 289 287 285 284 284 282 279 277 274 270 263 253 247 260 273 284 273 222 184 173 171 169 164 164 166 157
309 306 304 304 304 301 298 295 294 296 297 299 300 299 299 298 297 295 293 288 281 277 276 274 275 276 274 271 261 251 243 250 265 275 262 225 187 176 172 169 169 171 172 169
293 290 292 296 301 303 303 300 299 302 301 300 304 305 305 304 301 298 295 292 285 278 271 267 268 272 272 270 260 246 239 236 246 261 256 224 190 177 172 170 170 168 161 164
292 289 291 294 297 299 300 302 303 303 302 305 309 307 304 302 300 297 294 290 286 281 274 264 264 269 271 269 268 244 232 235 247 255 245 213 189 177 173 172 170 168 163 161
295 296 299 302 304 304 306 307 308 309 308 310 311 309 307 305 302 299 294 287 278 272 270 265 264 263 263 268 268 238 225 232 246 252 233 203 185 175 174 173 170 167 165 168
304 306 309 312 312 311 312 313 314 312 312 314 314 311 309 306 304 300 295 289 281 272 266 262 259 256 255 259 260 233 224 231 246 243 220 197 182 172 170 168 167 168 170 172
308 311 315 316 316 318 318 316 314 315 317 318 316 313 311 309 307 302 290 279 278 274 267 257 251 254 257 261 242 226 227 233 245 235 204 185 175 167 166 164 164 167 171 173
313 315 316 317 320 318 318 319 320 321 320 318 316 314 313 310 307 303 301 290 280 275 266 256 256 265 271 262 237 228 232 238 239 223 190 173 165 163 162 162 164 166 169 173
318 317 318 320 323 323 324 325 324 321 318 316 314 315 315 314 310 304 295 293 287 277 267 260 264 270 267 245 237 235 236 236 229 208 173 160 156 156 158 160 163 166 170 172
319 321 324 329 331 327 324 324 324 322 321 319 318 319 319 315 312 313 309 303 296 284 271 264 263 260 247 231 230 231 225 211 213 190 162 150 152 156 160 161 164 167 169 174
324 326 326 324 323 321 324 325 323 321 322 321 322 322 322 321 318 316 314 308 299 290 278 266 259 244 227 221 222 216 203 189 201 197 174 164 159 161 165 167 167 169 172 175
326 326 324 327 326 326 326 324 322 321 321 321 322 323 324 327 329 330 327 322 314 300 286 273 255 237 225 216 208 194 178 176 188 184 181 178 175 173 173 173 172 171 172 175